Vorticity
4 4 4 4 4 6 5 6 7 6 7 8 19 11 1 -0 12 11 16 11 18 25 12 16 23 1 26 15 1 5 -23 16 22 5 -15 14 -7 16 30 7 8 2 12 3 6
3 5 5 4 5 4 6 7 8 8 5 9 14 11 4 -1 10 10 21 16 19 23 14 13 20 14 11 -0 16 27 15 -4 23 -1 20 39 -9 -3 -4 17 11 5 8 7 5
2 7 6 4 5 5 4 6 8 7 9 7 11 19 14 10 6 10 16 16 15 15 13 10 17 28 -1 19 6 23 18 7 7 13 -5 15 25 -3 4 -11 13 14 2 12 10
5 5 6 7 4 4 4 5 6 9 8 7 9 9 21 11 7 7 10 13 13 16 21 4 25 13 21 -4 7 9 19 20 6 15 3 -3 31 -12 -25 -16 1 21 10 7 11
7 3 5 3 3 3 1 5 4 6 9 9 5 11 13 12 6 3 9 12 10 16 14 16 6 11 14 5 33 5 5 10 34 17 11 13 15 6 11 12 4 0 5 6 -5
5 4 4 4 4 5 4 3 6 5 6 6 11 7 10 24 15 5 5 9 11 9 12 17 8 7 17 12 1 23 -15 18 9 19 35 14 6 -0 10 12 15 18 9 12 9
7 6 7 7 5 4 3 4 3 7 6 8 8 10 10 4 12 15 2 9 9 8 10 16 14 5 8 14 7 14 4 8 -4 2 16 26 23 9 11 14 6 -1 4 5 6
6 4 3 2 3 3 4 2 4 3 9 6 3 12 8 11 10 16 16 4 10 9 9 5 8 11 9 9 10 8 11 25 2 -6 -3 -6 19 29 7 5 3 5 3 -1 1
6 5 3 2 1 1 -1 2 6 4 4 9 7 11 5 11 9 11 19 9 4 8 8 8 7 10 7 13 6 5 14 13 13 18 20 3 -5 5 32 22 11 8 7 8 9
5 4 1 1 2 3 3 1 2 3 5 8 8 5 9 6 10 10 10 14 5 2 7 9 8 8 8 9 13 14 11 13 17 10 5 11 4 5 9 15 21 13 14 9 8
3 4 6 6 5 5 4 4 4 5 4 4 5 8 8 4 8 9 8 11 12 11 3 6 4 9 8 5 9 7 6 6 11 6 14 11 2 11 9 -5 13 4 28 15 24
6 5 3 4 5 7 5 4 2 0 6 2 8 2 16 8 8 8 11 9 12 10 9 4 6 10 8 6 5 6 7 3 -0 9 6 5 8 7 7 14 16 10 -2 8 13
5 3 4 1 5 4 5 4 4 4 2 4 -0 20 13 10 4 8 10 7 11 11 11 8 4 3 8 6 8 7 6 8 11 3 6 9 6 8 7 6 6 9 10 11 14
7 6 4 1 0 1 6 6 7 5 -0 3 15 7 10 4 8 9 6 9 10 10 9 8 10 7 5 6 9 8 9 6 6 6 4 2 7 3 7 7 4 5 6 6 6
0 -0 3 6 5 4 5 8 7 7 1 6 9 6 9 9 2 12 5 10 13 10 10 8 13 8 4 8 4 9 7 9 8 8 9 9 5 12 7 5 14 13 11 8 8
2 2 2 7 8 12 13 11 12 10 17 11 9 10 17 13 15 15 -5 12 10 12 13 12 10 10 10 11 10 9 10 5 2 3 5 6 7 12 15 22 12 9 10 9 10
9 12 15 16 14 19 18 17 16 16 15 10 12 11 11 10 10 5 -6 6 6 7 8 11 13 14 7 -1 7 6 2 12 4 5 3 7 7 7 13 11 16 15 11 9 8
23 28 25 25 23 22 19 19 20 18 16 11 10 14 20 8 8 1 3 1 4 6 10 11 12 12 12 15 14 8 9 11 10 7 10 11 10 20 13 12 18 19 20 16 10
25 18 10 9 11 9 12 13 12 15 16 17 15 12 19 22 18 17 18 13 10 15 14 12 7 7 17 10 1 5 10 14 11 10 12 7 9 7 11 11 9 16 17 23 18
7 6 3 7 4 10 9 12 13 15 14 16 17 13 11 11 12 13 18 12 16 14 12 10 11 13 11 16 14 7 6 9 6 2 4 4 6 13 24 9 0 4 9 14 16
2 1 7 7 -1 9 4 12 21 14 14 20 16 11 14 16 15 13 12 15 13 10 -8 -7 1 2 2 4 15 5 11 3 27 17 -5 -10 -1 6 13 3 0 1 8 3 17
9 -1 10 7 16 14 7 8 6 11 18 18 18 19 14 12 13 12 12 16 15 16 17 11 1 3 13 5 6 5 15 18 -23 -10 12 15 13 16 -0 16 -0 9 6 12 25
2 8 9 13 10 9 10 5 4 13 21 18 19 18 20 12 8 8 12 15 19 12 6 6 6 6 8 17 18 13 5 5 -0 1 -4 -15 16 -37 40 22 11 3 16 9 7
10 11 6 10 1 8 6 8 8 9 15 16 13 14 18 22 18 16 12 11 12 18 18 15 11 9 8 7 6 13 24 29 11 4 5 4 -7 -14 -16 13 20 11 2 16 17
3 9 6 6 11 9 11 6 10 14 16 14 16 16 13 12 14 17 18 14 13 17 16 12 12 12 11 8 9 12 15 3 6 23 25 -5 10 9 -11 -10 29 14 7 -5 1
9 13 8 5 11 12 5 7 9 10 12 19 14 17 15 12 11 12 12 14 9 10 10 10 8 8 7 6 7 7 7 11 16 16 9 21 16 -4 2 -12 -3 28 11 8 3
6 3 5 11 14 7 4 7 9 10 14 15 13 16 15 11 10 11 11 11 10 9 9 7 5 5 5 9 10 7 17 20 20 19 25 10 12 15 1 7 -2 -10 28 8 5
Height
5783 5777 5771 5766 5759 5751 5743 5735 5727 5717 5707 5697 5688 5682 5677 5672 5666 5660 5654 5652 5648 5647 5648 5651 5654 5659 5661 5673 5679 5683 5689 5693 5696 5702 5710 5716 5719 5723 5727 5731 5736 5742 5749 5755 5760
5780 5775 5768 5762 5756 5748 5740 5732 5724 5716 5708 5699 5690 5682 5676 5671 5667 5661 5654 5649 5647 5646 5648 5651 5652 5658 5660 5669 5674 5678 5684 5688 5691 5696 5701 5709 5713 5717 5720 5724 5729 5733 5741 5747 5752
5776 5771 5766 5759 5753 5745 5737 5730 5722 5715 5707 5699 5691 5682 5676 5671 5667 5661 5654 5650 5648 5648 5649 5650 5653 5655 5662 5664 5671 5674 5679 5684 5686 5691 5695 5702 5708 5711 5714 5718 5723 5728 5736 5743 5748
5773 5768 5763 5757 5750 5743 5735 5727 5720 5713 5706 5698 5691 5683 5676 5671 5667 5661 5656 5651 5649 5648 5648 5649 5651 5655 5659 5662 5665 5673 5674 5679 5684 5688 5692 5697 5702 5705 5708 5713 5717 5722 5730 5736 5741
5770 5765 5760 5754 5747 5741 5734 5726 5718 5710 5703 5696 5690 5683 5676 5671 5666 5661 5657 5655 5650 5648 5647 5648 5650 5651 5656 5659 5663 5670 5672 5677 5681 5686 5689 5693 5695 5700 5705 5709 5712 5715 5720 5727 5734
5768 5762 5755 5750 5744 5738 5731 5724 5718 5710 5702 5694 5688 5682 5676 5671 5665 5661 5657 5654 5653 5649 5647 5646 5647 5649 5652 5656 5661 5665 5669 5675 5677 5681 5685 5688 5690 5695 5699 5704 5707 5711 5716 5721 5727
5764 5758 5752 5746 5740 5735 5728 5722 5715 5709 5702 5695 5687 5680 5675 5671 5664 5660 5656 5653 5652 5650 5647 5645 5646 5648 5651 5653 5657 5660 5666 5671 5675 5677 5681 5682 5686 5692 5691 5696 5700 5706 5710 5715 5719
5759 5753 5747 5742 5736 5730 5725 5719 5712 5706 5699 5693 5686 5679 5673 5668 5663 5658 5655 5652 5649 5649 5647 5646 5644 5645 5648 5651 5653 5656 5660 5666 5670 5673 5675 5676 5681 5682 5684 5688 5693 5697 5702 5707 5712
5753 5748 5743 5737 5731 5726 5720 5714 5709 5702 5696 5690 5685 5678 5671 5665 5661 5656 5653 5651 5648 5646 5646 5645 5644 5643 5644 5647 5650 5651 5656 5660 5663 5664 5667 5671 5674 5674 5676 5680 5685 5689 5694 5699 5704
5748 5743 5737 5732 5726 5721 5715 5709 5703 5698 5692 5686 5680 5676 5669 5664 5658 5653 5650 5647 5645 5644 5643 5642 5642 5641 5641 5642 5646 5649 5649 5650 5654 5657 5658 5660 5664 5665 5669 5675 5679 5684 5687 5691 5697
5741 5736 5730 5725 5719 5714 5708 5703 5699 5693 5688 5682 5676 5670 5665 5660 5654 5649 5645 5642 5641 5640 5639 5637 5637 5638 5638 5637 5637 5638 5642 5644 5647 5646 5647 5652 5652 5657 5659 5668 5673 5676 5680 5684 5688
5733 5727 5722 5717 5712 5707 5701 5696 5690 5686 5681 5674 5668 5663 5657 5653 5648 5644 5640 5637 5635 5633 5632 5632 5635 5633 5630 5630 5630 5631 5632 5639 5637 5638 5639 5642 5646 5650 5654 5659 5663 5668 5673 5677 5681
5725 5720 5714 5708 5704 5697 5691 5686 5680 5675 5670 5668 5660 5654 5649 5645 5640 5636 5632 5629 5627 5625 5624 5624 5628 5623 5624 5626 5626 5626 5628 5630 5631 5630 5628 5632 5634 5640 5646 5650 5654 5660 5664 5667 5673
5718 5712 5707 5700 5695 5688 5682 5675 5668 5663 5657 5656 5650 5645 5640 5635 5632 5627 5623 5621 5619 5617 5614 5614 5619 5617 5616 5619 5620 5620 5623 5621 5620 5621 5621 5624 5618 5630 5636 5640 5646 5652 5656 5658 5661
5708 5703 5696 5689 5683 5676 5670 5663 5656 5651 5644 5641 5637 5633 5628 5625 5621 5618 5614 5611 5610 5608 5606 5608 5609 5607 5607 5615 5611 5615 5613 5613 5612 5612 5610 5611 5608 5626 5630 5636 5644 5645 5647 5650 5653
5698 5692 5685 5678 5670 5663 5656 5649 5644 5641 5634 5628 5626 5621 5616 5612 5609 5605 5603 5601 5601 5600 5598 5599 5600 5601 5604 5604 5603 5606 5606 5606 5605 5603 5594 5605 5605 5613 5620 5628 5631 5635 5637 5641 5643
5686 5679 5671 5664 5658 5650 5643 5637 5635 5629 5623 5618 5614 5610 5605 5601 5596 5594 5591 5591 5591 5590 5591 5592 5591 5593 5593 5595 5597 5599 5599 5597 5594 5590 5585 5604 5592 5596 5613 5618 5624 5627 5628 5631 5633
5672 5664 5658 5651 5645 5639 5632 5627 5622 5616 5609 5604 5600 5598 5595 5590 5588 5584 5581 5581 5580 5579 5579 5578 5581 5584 5586 5585 5589 5586 5589 5588 5584 5582 5585 5591 5573 5592 5603 5605 5611 5615 5619 5620 5623
5660 5655 5649 5643 5635 5629 5623 5617 5610 5605 5599 5593 5588 5585 5583 5580 5577 5575 5573 5572 5571 5569 5568 5567 5567 5572 5571 5574 5575 5577 5576 5584 5577 5577 5572 5571 5573 5585 5591 5596 5600 5603 5607 5610 5612
5654 5648 5642 5635 5627 5621 5615 5608 5601 5595 5589 5584 5578 5575 5569 5566 5565 5562 5562 5562 5562 5561 5562 5560 5556 5559 5561 5561 5563 5566 5570 5571 5569 5566 5562 5559 5563 5574 5584 5585 5587 5593 5596 5600 5602
5646 5640 5634 5626 5620 5613 5606 5600 5593 5586 5580 5575 5568 5561 5557 5554 5552 5551 5548 5549 5548 5550 5549 5546 5545 5546 5547 5550 5553 5556 5557 5559 5558 5558 5555 5554 5556 5561 5572 5572 5575 5580 5585 5588 5591
5637 5632 5625 5618 5612 5604 5597 5590 5583 5576 5568 5563 5557 5550 5545 5540 5539 5537 5537 5535 5535 5535 5534 5534 5530 5530 5533 5539 5538 5541 5543 5545 5543 5543 5544 5543 5545 5547 5555 5561 5562 5566 5572 5575 5579
5632 5625 5618 5612 5605 5597 5590 5582 5574 5566 5559 5553 5547 5542 5538 5534 5528 5525 5523 5523 5523 5522 5521 5521 5520 5518 5519 5526 5526 5527 5528 5529 5529 5528 5532 5531 5530 5537 5540 5548 5552 5554 5561 5565 5568
5625 5617 5610 5602 5596 5589 5582 5573 5564 5555 5548 5542 5536 5531 5528 5524 5520 5517 5514 5514 5515 5514 5512 5509 5508 5511 5508 5511 5512 5513 5516 5515 5515 5512 5514 5514 5517 5532 5531 5534 5539 5543 5549 5554 5557
5616 5609 5601 5593 5586 5579 5572 5564 5555 5548 5540 5532 5528 5523 5516 5512 5508 5506 5505 5504 5504 5503 5502 5499 5497 5500 5496 5497 5497 5496 5497 5502 5500 5501 5497 5503 5502 5514 5519 5520 5523 5529 5535 5541 5545
5607 5600 5592 5585 5578 5570 5562 5554 5545 5537 5531 5524 5516 5511 5505 5501 5498 5495 5492 5491 5490 5491 5488 5486 5483 5482 5482 5485 5480 5475 5479 5482 5485 5484 5481 5483 5487 5494 5503 5505 5510 5513 5520 5527 5533
5596 5590 5582 5574 5567 5560 5552 5543 5535 5527 5521 5513 5507 5502 5496 5491 5486 5483 5480 5479 5478 5475 5474 5472 5469 5466 5463 5467 5462 5457 5465 5466 5465 5469 5469 5467 5471 5475 5480 5487 5493 5499 5505 5512 5519